Time,TemperatureF,DewpointF,PressureIn,WindDirection,WindDirectionDegrees,WindSpeedMPH,WindSpeedGustMPH,Humidity,HourlyPrecipIn,Conditions,Clouds,dailyrainin,SolarRadiationWatts/m^2,SoftwareType,DateUTC
2013-08-04 00:12:00,85.0,39.0,-100.00,South,171,4.0,10.0,20,0.00,,,0.00,0.000000,,2013-08-04 07:12:00,
2013-08-04 00:22:00,85.0,39.0,-100.00,South,171,4.0,10.0,20,0.00,,,0.00,0.000000,,2013-08-04 07:22:00,
2013-08-04 00:32:00,85.0,39.0,-100.00,South,171,4.0,10.0,20,0.00,,,0.00,0.000000,,2013-08-04 07:32:00,
2013-08-04 00:42:00,85.0,39.0,-100.00,South,171,4.0,10.0,20,0.00,,,0.00,0.000000,,2013-08-04 07:42:00,
2013-08-04 01:12:00,85.0,47.0,-100.00,SSE,157,6.0,9.0,27,0.00,,,0.00,0.000000,,2013-08-04 08:12:00,
2013-08-04 01:22:00,85.0,47.0,-100.00,SSE,157,6.0,9.0,27,0.00,,,0.00,0.000000,,2013-08-04 08:22:00,
2013-08-04 02:12:00,83.0,48.0,-100.00,South,177,5.0,9.0,30,0.00,,,0.00,0.000000,,2013-08-04 09:12:00,
2013-08-04 02:22:00,83.0,48.0,-100.00,South,177,5.0,9.0,30,0.00,,,0.00,0.000000,,2013-08-04 09:22:00,
2013-08-04 02:32:00,83.0,48.0,-100.00,South,177,5.0,9.0,30,0.00,,,0.00,0.000000,,2013-08-04 09:32:00,
2013-08-04 02:42:00,83.0,48.0,-100.00,South,177,5.0,9.0,30,0.00,,,0.00,0.000000,,2013-08-04 09:42:00,
2013-08-04 03:12:00,82.0,52.0,-100.00,South,183,6.0,8.0,35,0.00,,,0.00,0.000000,,2013-08-04 10:12:00,
2013-08-04 03:22:00,82.0,52.0,-100.00,South,183,6.0,8.0,35,0.00,,,0.00,0.000000,,2013-08-04 10:22:00,
2013-08-04 03:32:00,82.0,52.0,-100.00,South,183,6.0,8.0,35,0.00,,,0.00,0.000000,,2013-08-04 10:32:00,
2013-08-04 03:42:00,82.0,52.0,-100.00,South,183,6.0,8.0,35,0.00,,,0.00,0.000000,,2013-08-04 10:42:00,
2013-08-04 04:12:00,81.0,57.0,-100.00,SSE,166,6.0,10.0,44,0.00,,,0.00,0.000000,,2013-08-04 11:12:00,
2013-08-04 04:22:00,81.0,57.0,-100.00,SSE,166,6.0,10.0,44,0.00,,,0.00,0.000000,,2013-08-04 11:22:00,
2013-08-04 04:32:00,81.0,57.0,-100.00,SSE,166,6.0,10.0,44,0.00,,,0.00,0.000000,,2013-08-04 11:32:00,
2013-08-04 04:42:00,81.0,57.0,-100.00,SSE,166,6.0,10.0,44,0.00,,,0.00,0.000000,,2013-08-04 11:42:00,
2013-08-04 05:12:00,78.0,58.0,-100.00,South,183,2.0,9.0,51,0.00,,,0.00,0.000000,,2013-08-04 12:12:00,
2013-08-04 05:22:00,78.0,58.0,-100.00,South,183,2.0,9.0,51,0.00,,,0.00,0.000000,,2013-08-04 12:22:00,
2013-08-04 05:32:00,78.0,58.0,-100.00,South,183,2.0,9.0,51,0.00,,,0.00,0.000000,,2013-08-04 12:32:00,
2013-08-04 05:43:00,78.0,58.0,-100.00,South,183,2.0,9.0,51,0.00,,,0.00,0.000000,,2013-08-04 12:43:00,
2013-08-04 06:22:00,74.0,60.0,-100.00,SW,232,3.0,4.0,62,0.00,,,0.00,0.000000,,2013-08-04 13:22:00,
2013-08-04 06:32:00,74.0,60.0,-100.00,SW,232,3.0,4.0,62,0.00,,,0.00,0.000000,,2013-08-04 13:32:00,
2013-08-04 06:43:00,74.0,60.0,-100.00,SW,232,3.0,4.0,62,0.00,,,0.00,0.000000,,2013-08-04 13:43:00,
2013-08-04 07:12:00,76.0,62.0,-100.00,South,175,4.0,6.0,61,0.00,,,0.00,32.000000,,2013-08-04 14:12:00,
2013-08-04 07:22:00,76.0,62.0,-100.00,South,175,4.0,6.0,61,0.00,,,0.00,32.000000,,2013-08-04 14:22:00,
2013-08-04 07:32:00,76.0,62.0,-100.00,South,175,4.0,6.0,61,0.00,,,0.00,32.000000,,2013-08-04 14:32:00,
2013-08-04 07:43:00,76.0,62.0,-100.00,South,175,4.0,6.0,61,0.00,,,0.00,32.000000,,2013-08-04 14:43:00,
2013-08-04 08:12:00,86.0,63.0,-100.00,South,188,4.0,7.0,47,0.00,,,0.00,245.000000,,2013-08-04 15:12:00,
2013-08-04 08:22:00,86.0,63.0,-100.00,South,188,4.0,7.0,47,0.00,,,0.00,245.000000,,2013-08-04 15:22:00,
2013-08-04 08:32:00,86.0,63.0,-100.00,South,188,4.0,7.0,47,0.00,,,0.00,245.000000,,2013-08-04 15:32:00,
2013-08-04 08:42:00,86.0,63.0,-100.00,South,188,4.0,7.0,47,0.00,,,0.00,245.000000,,2013-08-04 15:42:00,
2013-08-04 09:12:00,92.0,57.0,-100.00,SSE,161,7.0,11.0,31,0.00,,,0.00,466.000000,,2013-08-04 16:12:00,
2013-08-04 09:22:00,92.0,57.0,-100.00,SSE,161,7.0,11.0,31,0.00,,,0.00,466.000000,,2013-08-04 16:22:00,
2013-08-04 09:32:00,92.0,57.0,-100.00,SSE,161,7.0,11.0,31,0.00,,,0.00,466.000000,,2013-08-04 16:32:00,
2013-08-04 09:42:00,92.0,57.0,-100.00,SSE,161,7.0,11.0,31,0.00,,,0.00,466.000000,,2013-08-04 16:42:00,
2013-08-04 10:12:00,97.0,53.0,-100.00,SSE,157,8.0,12.0,23,0.00,,,0.00,658.000000,,2013-08-04 17:12:00,
2013-08-04 10:22:00,97.0,53.0,-100.00,SSE,157,8.0,12.0,23,0.00,,,0.00,658.000000,,2013-08-04 17:22:00,
2013-08-04 10:32:00,97.0,53.0,-100.00,SSE,157,8.0,12.0,23,0.00,,,0.00,658.000000,,2013-08-04 17:32:00,
2013-08-04 10:43:00,97.0,53.0,-100.00,SSE,157,8.0,12.0,23,0.00,,,0.00,658.000000,,2013-08-04 17:43:00,
2013-08-04 11:22:00,101.0,43.0,-100.00,SSE,160,8.0,11.0,14,0.00,,,0.00,836.000000,,2013-08-04 18:22:00,
2013-08-04 11:33:00,101.0,43.0,-100.00,SSE,160,8.0,11.0,14,0.00,,,0.00,836.000000,,2013-08-04 18:33:00,
2013-08-04 11:43:00,101.0,43.0,-100.00,SSE,160,8.0,11.0,14,0.00,,,0.00,836.000000,,2013-08-04 18:43:00,
2013-08-04 12:12:00,104.0,43.0,-100.00,South,174,7.0,12.0,13,0.00,,,0.00,967.000000,,2013-08-04 19:12:00,
2013-08-04 12:22:00,104.0,43.0,-100.00,South,174,7.0,12.0,13,0.00,,,0.00,967.000000,,2013-08-04 19:22:00,
2013-08-04 12:32:00,104.0,43.0,-100.00,South,174,7.0,12.0,13,0.00,,,0.00,967.000000,,2013-08-04 19:32:00,
2013-08-04 12:43:00,104.0,43.0,-100.00,South,174,7.0,12.0,13,0.00,,,0.00,967.000000,,2013-08-04 19:43:00,
2013-08-04 13:12:00,106.0,45.0,-100.00,SSE,168,6.0,11.0,13,0.00,,,0.00,982.000000,,2013-08-04 20:12:00,
2013-08-04 13:22:00,106.0,45.0,-100.00,SSE,168,6.0,11.0,13,0.00,,,0.00,982.000000,,2013-08-04 20:22:00,
2013-08-04 13:32:00,106.0,45.0,-100.00,SSE,168,6.0,11.0,13,0.00,,,0.00,982.000000,,2013-08-04 20:32:00,
2013-08-04 13:42:00,106.0,45.0,-100.00,SSE,168,6.0,11.0,13,0.00,,,0.00,982.000000,,2013-08-04 20:42:00,
2013-08-04 14:12:00,107.0,39.0,-100.00,South,170,7.0,12.0,10,0.00,,,0.00,1039.000000,,2013-08-04 21:12:00,
2013-08-04 14:22:00,107.0,39.0,-100.00,South,170,7.0,12.0,10,0.00,,,0.00,1039.000000,,2013-08-04 21:22:00,
2013-08-04 14:32:00,107.0,39.0,-100.00,South,170,7.0,12.0,10,0.00,,,0.00,1039.000000,,2013-08-04 21:32:00,
2013-08-04 14:43:00,107.0,39.0,-100.00,South,170,7.0,12.0,10,0.00,,,0.00,1039.000000,,2013-08-04 21:43:00,
2013-08-04 15:43:00,108.0,46.0,-100.00,SSE,159,7.0,15.0,13,0.00,,,0.00,909.000000,,2013-08-04 22:43:00,
2013-08-04 16:11:00,108.0,44.0,-100.00,SSE,160,7.0,15.0,12,0.00,,,0.00,809.000000,,2013-08-04 23:11:00,
2013-08-04 16:22:00,108.0,44.0,-100.00,SSE,160,7.0,15.0,12,0.00,,,0.00,809.000000,,2013-08-04 23:22:00,
2013-08-04 16:32:00,108.0,44.0,-100.00,SSE,160,7.0,15.0,12,0.00,,,0.00,809.000000,,2013-08-04 23:32:00,
2013-08-04 16:42:00,108.0,44.0,-100.00,SSE,160,7.0,15.0,12,0.00,,,0.00,809.000000,,2013-08-04 23:42:00,
2013-08-04 18:12:00,105.0,48.0,-100.00,SE,142,6.0,12.0,15,0.00,,,0.00,363.000000,,2013-08-05 01:12:00,
2013-08-04 18:22:00,105.0,48.0,-100.00,SE,142,6.0,12.0,15,0.00,,,0.00,363.000000,,2013-08-05 01:22:00,
2013-08-04 18:33:00,105.0,48.0,-100.00,SE,142,6.0,12.0,15,0.00,,,0.00,363.000000,,2013-08-05 01:33:00,
2013-08-04 18:42:00,105.0,48.0,-100.00,SE,142,6.0,12.0,15,0.00,,,0.00,363.000000,,2013-08-05 01:42:00,
2013-08-04 19:12:00,101.0,46.0,-100.00,SSE,151,5.0,9.0,16,0.00,,,0.00,200.000000,,2013-08-05 02:12:00,
2013-08-04 19:22:00,101.0,46.0,-100.00,SSE,151,5.0,9.0,16,0.00,,,0.00,200.000000,,2013-08-05 02:22:00,
2013-08-04 19:33:00,101.0,46.0,-100.00,SSE,151,5.0,9.0,16,0.00,,,0.00,200.000000,,2013-08-05 02:33:00,
2013-08-04 19:43:00,101.0,46.0,-100.00,SSE,151,5.0,9.0,16,0.00,,,0.00,200.000000,,2013-08-05 02:43:00,
2013-08-04 20:12:00,96.0,44.0,-100.00,SSE,165,4.0,7.0,17,0.00,,,0.00,26.000000,,2013-08-05 03:12:00,
2013-08-04 20:22:00,96.0,44.0,-100.00,SSE,165,4.0,7.0,17,0.00,,,0.00,26.000000,,2013-08-05 03:22:00,
2013-08-04 20:32:00,96.0,44.0,-100.00,SSE,165,4.0,7.0,17,0.00,,,0.00,26.000000,,2013-08-05 03:32:00,
2013-08-04 20:42:00,96.0,44.0,-100.00,SSE,165,4.0,7.0,17,0.00,,,0.00,26.000000,,2013-08-05 03:42:00,
2013-08-04 22:32:00,90.0,42.0,-100.00,SSE,151,6.0,9.0,19,0.00,,,0.00,0.000000,,2013-08-05 05:32:00,
2013-08-04 22:43:00,90.0,42.0,-100.00,SSE,151,6.0,9.0,19,0.00,,,0.00,0.000000,,2013-08-05 05:43:00,
2013-08-04 23:12:00,88.0,47.0,-100.00,South,186,4.0,9.0,24,0.00,,,0.00,0.000000,,2013-08-05 06:12:00,
2013-08-04 23:22:00,88.0,47.0,-100.00,South,186,4.0,9.0,24,0.00,,,0.00,0.000000,,2013-08-05 06:22:00,
2013-08-04 23:32:00,88.0,47.0,-100.00,South,186,4.0,9.0,24,0.00,,,0.00,0.000000,,2013-08-05 06:32:00,
2013-08-04 23:42:00,88.0,47.0,-100.00,South,186,4.0,9.0,24,0.00,,,0.00,0.000000,,2013-08-05 06:42:00,